Вернуться в каталог

SHIYAN 30-03

АктивенВоенныеVLEO
NORAD 68139·PAYLOAD·🇨🇳 China

Запущен Mar 12, 2026 с Xichang Satellite Launch Center

Loading…

Ближайшие Пролёты (ближайшие 24 часа)

TLE

СвежийSource: Space-Track

Эпоха: Sep 14, 2026, 21:39 UTC

1 68139U 26048A   26257.90267063  .00001444  00000-0  14252-3 0  9992
2 68139  34.9995  90.2481 0004023  23.3281 336.7606 14.91970385 27771

Отслеживайте SHIYAN 30-03 в реальном времени с AllMySat

Download on the App Store